If you wish to contribute or participate in the discussions about articles you are invited to join SKYbrary as a registered user

 Actions

Dole-Tavaux Airport

From SKYbrary Wiki

LFGJ
Airport
ICAO: LFGJ – IATA: DLE
Summary
Name Dole-Tavaux Airport
Region Europe
Territory France FR.gif
Location , Franche-Comte
Serving Dole
Elevation 196.596 m
645 ft
645 ft196.596 m
Type medium airport
Coordinates 47° 2' 20.45" N, 5° 25' 38.10" E
Runways
Designator Length Width Surface ROPS
5/23 2231 m7,319.554 ft
45 m147.638 ft
ASP yes/yes


METAR
Observation LFGJ 182000Z AUTO 13004KT 080V150 9999 -RA VCTS ///CB 19/18 Q1014
Station Dole Tavaux
Date/Time 18 August 2019 20:00:00
Wind direction 130°
Wind speed 04 kts
Lowest cloud amount n/a
Temperature 19°C
Dew point 18°C
Humidity 93%
QNH 1014 hPa
Weather condition light thunderstorm